Theta_e
321 323 323 321 321 321 321 322 324 324 325 324 324 324 322 320 319 318 318 317 315 315 315 314 315 316 315 314 315 314 313 312 309 313 312 301 297 296 296 296 296 294 292
321 322 322 321 320 319 320 321 323 322 323 323 322 322 322 322 320 318 316 316 315 314 315 315 315 315 315 315 314 314 314 315 312 310 302 293 292 292 292 289 290 293 291
319 321 320 320 319 319 320 320 321 321 320 320 320 320 320 322 320 319 317 316 316 315 315 315 315 315 314 314 314 314 313 308 307 307 292 292 287 289 288 288 286 288 288
318 319 319 319 318 318 319 318 320 320 317 318 318 318 319 319 319 319 318 317 316 316 315 314 313 314 313 310 306 303 300 299 298 294 289 286 286 285 284 282 282 284 283
316 318 319 319 319 318 317 318 318 318 318 318 317 316 317 317 317 317 313 303 298 294 293 293 293 293 292 293 296 295 295 292 290 287 284 282 281 279 278 279 279 280 281
316 318 319 318 318 317 316 316 316 316 316 315 313 311 308 305 296 296 300 297 293 290 288 287 288 288 286 286 285 285 287 287 284 282 279 277 276 277 277 276 276 276 276
315 317 317 317 316 316 316 316 314 309 306 302 300 300 296 296 294 293 292 292 289 288 286 286 285 285 284 283 282 282 281 281 280 279 276 275 273 275 276 275 275 276 277
314 315 316 316 315 315 315 306 301 300 298 295 292 292 291 291 291 290 289 288 286 286 285 285 284 283 282 281 279 278 277 278 278 278 276 275 275 275 276 275 275 276 279
313 314 314 316 313 310 303 298 295 293 291 289 289 288 287 287 288 288 287 285 284 283 284 284 283 282 282 282 278 276 276 276 279 278 278 277 276 275 275 275 274 274 273
313 314 315 315 309 303 297 293 292 289 287 286 286 286 286 286 287 287 286 285 282 281 281 282 282 281 281 280 278 276 273 273 273 273 273 273 274 274 274 273 273 270 270
301 310 309 308 302 297 293 291 288 287 286 285 284 284 285 286 286 286 285 283 281 279 279 279 280 280 279 279 278 276 274 274 273 273 273 273 273 273 273 272 273 271 270
292 295 294 294 293 292 289 288 287 286 284 283 283 282 283 284 284 284 283 281 281 278 277 277 278 278 278 277 276 276 275 274 273 273 272 270 270 271 272 272 272 272 272
288 287 288 288 288 288 287 286 285 285 284 282 282 281 280 281 281 282 281 280 279 277 277 278 278 277 276 274 274 273 272 272 270 270 269 269 270 271 271 271 272 272 272
283 284 285 285 285 285 285 285 284 283 282 281 280 278 278 278 278 279 278 278 278 276 274 273 272 272 271 271 271 271 271 272 271 270 269 270 270 270 270 270 270 270 270
282 282 282 282 281 281 281 281 281 282 282 279 279 279 277 276 276 277 275 273 273 273 272 272 270 270 270 270 269 270 270 270 269 269 269 269 269 269 268 269 269 269 268
280 280 280 280 281 281 280 280 283 282 282 281 281 279 278 279 279 278 278 277 276 275 273 271 270 270 269 268 268 268 268 268 268 268 268 267 267 267 267 268 268 268 267
280 280 280 280 280 279 279 278 277 280 282 282 281 281 280 280 280 279 278 276 275 274 271 269 269 269 269 269 268 268 267 267 267 267 266 265 266 267 267 267 267 267 267
278 279 279 279 279 279 278 278 278 277 276 277 280 280 280 280 279 277 276 273 270 271 270 269 269 269 269 268 268 267 267 267 266 266 265 265 264 266 266 266 267 265 266
276 276 277 277 277 277 276 276 276 275 275 275 276 277 277 277 275 274 273 271 270 269 269 268 269 268 268 267 266 266 266 265 265 265 264 264 264 265 265 266 266 263 264
275 275 275 274 274 273 273 272 272 272 271 271 271 270 270 271 269 270 270 270 269 268 268 267 267 267 267 266 266 266 265 266 265 265 264 265 264 265 265 265 265 265 265
275 275 275 275 274 274 273 272 271 270 269 269 268 269 269 269 268 268 268 268 268 267 267 267 266 266 266 266 266 266 265 265 265 264 264 264 263 264 265 266 265 265 265
275 274 274 273 273 272 271 270 269 269 268 267 266 266 267 268 267 267 267 266 267 267 267 267 266 267 266 266 266 265 265 264 265 265 265 263 264 265 265 265 264 265 265
274 273 272 272 271 270 270 269 268 267 267 267 266 266 266 266 265 265 265 265 266 266 266 266 266 265 265 265 266 266 266 266 265 264 263 263 264 264 264 264 264 264 264
272 272 271 270 270 269 268 267 267 266 266 266 265 265 264 264 264 263 263 264 264 264 264 264 265 264 263 264 266 266 266 265 265 264 260 261 263 263 263 263 264 263 263
272 270 270 269 268 267 267 266 266 266 265 265 264 264 263 263 263 262 263 262 262 263 262 262 263 262 261 260 261 261 260 259 260 258 262 261 261 260 261 262 262 263 263
270 270 269 269 268 267 266 265 265 265 264 264 264 263 263 263 262 262 261 261 261 261 261 262 261 259 258 261 259 259 258 258 259 258 260 262 261 262 262 262 261 262 263
Wind_Speed
14 14 13 10 10 7 6 5 8 8 10 12 11 10 15 19 19 17 16 15 16 15 13 13 11 8 6 4 3 4 5 4 5 2 3 5 5 7 8 8 7 9 9
14 14 13 11 9 7 6 6 7 7 8 9 10 12 16 14 19 21 19 17 18 16 15 14 13 9 13 11 8 8 7 8 6 7 3 4 6 7 7 9 7 6 7
11 14 13 12 10 8 7 5 5 5 4 4 5 7 6 15 17 18 19 19 18 16 18 17 15 15 14 10 10 8 6 3 3 2 4 3 5 3 5 6 7 6 6
9 14 14 13 10 8 8 7 5 5 4 4 3 3 2 6 9 12 15 18 16 14 12 11 11 14 12 9 6 5 4 5 3 4 5 4 4 5 6 4 4 3 3
11 12 13 12 10 8 8 8 6 6 5 5 5 5 5 4 6 9 9 13 14 13 12 12 11 16 21 15 5 5 5 4 4 5 5 5 5 5 5 4 3 3 3
11 13 13 12 10 9 8 8 7 6 6 5 5 6 6 5 17 16 14 14 14 14 16 16 16 22 26 29 30 30 16 8 9 6 8 9 9 6 5 6 5 4 2
11 11 13 13 11 10 9 9 7 7 7 8 7 8 8 8 19 22 20 13 15 13 15 14 15 12 19 19 29 31 30 30 18 12 13 7 7 6 4 6 7 5 4
12 12 12 13 12 11 10 9 9 7 9 8 9 9 11 10 20 26 26 17 16 15 14 14 15 15 15 17 19 20 18 16 15 12 13 11 10 7 7 6 6 6 1
11 12 12 13 12 11 11 10 9 11 9 10 9 12 14 12 16 24 24 17 18 17 14 14 15 16 23 25 19 20 18 16 20 25 24 23 20 18 12 5 7 6 4
10 11 11 11 12 12 13 13 9 11 12 10 13 13 17 14 18 18 20 14 18 14 15 17 24 19 22 21 16 14 15 12 11 12 11 13 13 13 14 10 6 6 5
10 7 9 11 12 13 12 13 14 14 14 13 15 13 14 14 15 22 21 14 13 14 13 12 12 25 25 22 19 13 14 13 13 10 9 8 8 8 7 7 7 5 5
9 7 11 11 10 11 15 12 14 15 16 14 15 14 11 13 21 26 29 26 23 16 15 12 16 27 27 25 17 23 21 13 9 9 9 8 7 6 6 6 7 6 4
11 10 12 14 12 12 13 13 11 12 13 12 12 13 13 12 14 31 32 32 30 18 13 24 30 28 27 22 23 19 13 9 8 9 8 7 6 6 6 5 6 8 6
12 12 9 12 15 12 10 8 7 11 10 11 13 14 13 12 11 13 15 19 29 21 20 15 17 17 17 15 13 12 9 8 8 9 8 6 5 6 6 6 7 8 7
10 10 10 11 12 13 14 10 12 9 11 11 13 11 13 14 11 16 17 13 12 15 17 11 10 10 10 10 10 10 9 8 8 7 7 6 6 5 6 6 6 6 6
10 9 9 9 9 12 14 16 26 23 27 25 22 16 13 26 28 27 28 29 29 23 12 11 10 10 10 9 10 9 8 8 8 7 6 6 5 6 5 5 5 6 7
10 10 9 10 9 10 13 15 18 22 31 30 28 27 28 28 29 29 27 26 23 17 11 11 10 9 9 9 9 8 8 7 7 6 6 5 5 5 5 5 6 7 7
11 13 10 9 10 10 12 13 12 14 15 15 23 22 29 29 27 27 24 20 12 12 10 10 10 9 9 9 8 8 7 6 5 5 5 5 5 5 5 6 6 7 8
9 8 9 9 10 11 11 12 12 14 14 14 14 16 19 26 23 20 16 10 11 11 9 9 9 9 8 8 7 7 6 6 5 4 4 5 5 4 4 5 6 7 9
12 17 13 11 11 11 11 12 12 12 12 11 11 11 11 12 10 10 10 10 10 9 9 9 8 8 8 7 7 6 6 5 5 5 4 4 4 3 4 5 6 7 7
9 11 14 11 10 10 11 11 11 11 11 11 11 9 11 9 10 10 9 8 8 9 9 8 8 8 7 6 5 5 5 5 4 3 3 3 3 4 4 5 5 6 7
10 10 10 11 10 11 11 10 11 11 11 11 10 11 14 9 9 9 9 9 8 9 7 8 7 6 5 5 5 4 4 3 2 2 3 3 4 3 4 4 5 6 7
10 11 11 11 11 13 11 11 10 11 11 10 9 9 9 9 9 9 9 8 8 7 7 7 7 6 5 4 3 3 2 2 2 2 4 4 4 4 4 5 6 7 7
10 11 12 11 10 10 10 10 11 12 11 10 9 8 9 9 9 9 8 7 7 7 6 5 5 5 5 3 2 1 1 1 1 2 4 4 4 4 4 5 6 7 7
10 11 10 10 10 10 10 10 10 10 10 9 9 9 9 8 8 8 7 6 6 5 5 4 3 5 4 3 2 1 2 3 3 4 4 5 5 6 5 5 6 7 7
9 10 10 9 9 9 10 10 10 9 9 9 8 8 8 8 7 7 5 5 5 4 4 3 4 3 2 2 2 2 3 4 4 4 4 4 4 4 4 6 7 6 8
Wind_Direction
174 176 175 178 172 161 167 193 220 225 214 207 214 212 191 186 188 181 182 179 179 164 158 153 154 151 156 162 181 174 168 157 208 206 91 68 67 78 72 74 69 95 74
179 179 172 172 164 160 176 186 201 208 222 221 221 220 211 197 188 180 178 178 180 176 165 171 178 181 199 197 200 204 194 190 204 230 88 89 71 81 80 70 60 52 82
178 177 166 178 163 169 183 177 192 190 178 175 203 216 215 204 181 183 179 178 178 183 178 180 185 191 198 189 189 199 195 161 158 167 109 80 77 41 75 68 48 34 69
187 182 176 175 161 168 163 169 183 158 138 121 132 163 153 154 163 175 186 174 173 173 177 172 179 187 183 170 152 141 118 117 105 105 93 98 92 57 64 28 41 28 44
186 182 179 164 158 161 155 164 152 157 155 132 113 94 95 97 149 139 139 114 103 94 84 80 72 74 70 62 88 82 100 96 91 81 81 76 58 58 45 7 11 337 93
188 187 170 151 158 167 156 153 152 137 128 106 99 97 80 60 89 91 118 105 102 101 98 85 81 82 81 81 77 68 62 92 82 89 78 80 65 59 39 32 16 15 20
182 185 167 152 158 161 157 152 142 112 102 86 69 75 61 66 103 99 91 95 99 97 94 101 96 92 90 90 81 77 71 71 71 92 96 88 77 48 40 32 26 9 12
183 176 164 156 160 159 150 122 106 98 101 96 84 75 77 62 101 101 97 94 90 86 92 96 100 97 95 99 93 84 77 75 77 85 90 92 82 60 55 46 11 346 43
184 178 171 162 158 142 128 121 113 106 91 84 80 85 89 79 88 105 103 96 93 90 88 91 96 100 105 101 96 97 92 85 83 86 87 82 74 66 57 63 35 24 5
183 178 170 161 146 138 129 121 104 101 100 94 88 82 91 92 90 98 107 111 104 100 93 91 95 102 102 103 101 106 101 108 107 93 82 75 67 62 55 54 45 39 21
321 133 130 131 126 123 116 121 117 113 107 100 94 87 88 94 98 101 105 105 109 109 101 98 95 99 97 95 95 96 101 109 99 93 87 79 65 56 49 44 44 40 17
4 74 95 104 114 114 118 118 119 119 111 108 104 96 87 88 97 101 101 100 104 99 99 97 99 98 94 92 89 100 102 103 98 89 80 66 63 51 36 30 29 18 359
42 31 85 94 92 97 113 118 114 115 117 116 109 105 102 100 101 104 103 103 103 100 102 105 100 96 95 90 91 89 87 87 91 89 79 71 55 41 28 18 16 12 353
38 50 61 84 90 92 91 89 93 113 110 113 114 115 113 108 105 108 104 103 101 99 97 94 99 94 89 94 91 84 81 76 82 83 81 75 59 40 29 12 7 359 345
63 66 63 78 81 88 74 78 85 58 108 115 116 116 120 116 115 117 117 115 113 109 109 104 101 101 103 96 90 86 85 81 79 74 71 66 55 35 27 12 7 352 346
68 64 66 64 75 90 95 92 86 99 97 102 106 115 107 113 118 116 116 118 118 119 113 113 107 105 103 105 98 92 85 79 71 72 67 55 47 36 11 9 358 354 343
82 85 86 88 95 89 101 102 104 89 92 97 101 106 107 115 114 112 112 111 112 111 100 108 108 109 109 103 101 101 98 84 82 75 69 52 33 26 5 2 359 350 344
73 76 81 87 92 100 96 100 101 104 104 99 94 102 104 106 108 108 111 107 100 89 101 108 109 110 107 106 106 104 100 95 82 79 67 54 30 17 8 0 352 344 339
70 69 76 82 80 86 91 95 96 97 99 99 99 91 97 100 100 102 104 100 107 107 109 106 105 106 106 104 103 102 102 91 82 77 63 45 24 7 0 339 337 345 322
72 78 81 79 81 84 86 89 91 90 91 90 89 92 92 100 101 94 91 96 100 102 105 105 106 106 106 108 111 117 119 105 88 67 48 30 8 342 335 334 347 340 340
79 78 86 84 84 85 85 86 88 90 88 84 83 82 96 103 101 97 98 96 101 105 108 107 106 103 107 116 123 110 97 84 67 62 29 8 347 325 337 339 333 328 333
85 84 84 84 85 85 86 87 87 89 90 93 96 87 93 91 95 98 99 98 98 99 104 109 107 104 108 113 113 106 103 103 99 53 11 332 318 332 330 331 327 331 341
84 87 85 84 87 91 88 85 93 97 100 101 101 100 98 98 98 99 99 98 98 97 97 101 102 101 94 89 86 101 130 115 70 20 332 321 317 330 326 329 331 335 347
86 89 93 91 91 93 96 98 100 101 106 107 106 105 100 98 97 96 97 97 96 90 86 92 92 96 107 108 117 142 104 78 349 318 302 302 303 316 323 323 327 333 322
104 106 105 106 105 103 106 103 103 104 105 107 106 104 102 100 101 96 93 96 100 103 93 86 86 108 107 93 88 79 48 359 312 312 287 277 293 305 307 304 320 316 317
100 101 102 106 107 111 112 113 112 111 111 111 110 108 106 105 105 108 110 109 107 99 103 101 102 93 110 158 163 340 314 315 305 310 290 280 295 302 298 307 310 307 310